Starlink 31745

operational
NORAD ID: 60329 Int'l Des: 2024-136 Owner: SPXS Country: US Constellation: starlink
LEOCIRCULAR

Starlink 31745について

説明を読み込み中...

リアルタイム位置

3D地球を読み込み中...

次回通過

高度履歴

Altitude vs Time

uPlot chart will show altitude changes over time

軌道要素

1 60329U 24136A 25260.95530865 .00001459 00000-0 61377-4 0 9999
2 60329 53.1587 158.3246 0000871 125.5180 234.5902 15.30193498 64422
Epoch: Sep 17, 2025 • Age: 23 hours

現在のステータス

高度 481.2 km
速度 7.63 km/s
衛星直下点 -21.50°S, 26.29°E
打ち上げ日 Aug 2, 2024
運用期間 1.1 years
タイプ internet

技術仕様

分類 Payload
質量 730.00 kg
乾燥質量 700.00 kg
総質量 730.00 kg
長さ 0.30 m
直径 4.10 m
スパン 29.00 m
形状 Box + pan
製造者 SPXS
バスタイプ Starlink V2M
フェーズステータス In Orbit
所有者/国 SPXS/US

大規模コンステレーション

Loading constellations...